Location: Melbourne
(37.8170°S, 144.9670°E)
Time: 19:08:31
(UTC+10:00)

Explorer 11/Cluster Stage 4 - Visible Passes

Search period start: 26 July 2014 00:00
Search period end: 05 August 2014 00:00
Orbit: 468 x 1284 km, 28.8° (Epoch: 25 July)

Date Brightness Start Highest point End Pass type
(mag) Time Alt. Az. Time Alt. Az. Time Alt. Az.
26 Jul 7.8 05:35:09 20° NNW 05:36:08 21° N 05:40:07 10° NE visible
27 Jul 8.0 05:29:11 18° NNW 05:29:36 18° N 05:33:01 10° NNE visible
28 Jul 8.2 05:23:13 15° N 05:23:13 15° N 05:25:47 10° NNE visible
29 Jul 8.5 05:17:18 12° N 05:17:18 12° N 05:18:15 10° N visible
